Location: Durkee
(44.1305°N, 107.9134°W)
Time: 22:10:05
(UTC+00:00)

X-37B - Pass Details

Date: 29 January 2022
Orbit: 329 x 342 km, 45.0° (Epoch: 18 May)

Event Time Altitude Azimuth Distance (km) Brightness Sun altitude
Rises 01:30:47 0° 237° (WSW) 2,111 5.7 -13.5°
Reaches altitude 10° 01:32:51 10° 230° (SW) 1,273 4.2 -13.8°
Maximum altitude 01:35:34 41° 157° (SSE) 500 1.0 -14.3°
Enters shadow 01:36:23 32° 114° (ESE) 611 1.1 -14.5°
